| time (UTC) | temp F | wind direction | speed MPH | gust MPH | rain 1hr in | rain 24hr in | rain mn in | humidity % | barometer mb |
| 20260504040347 | 69 | 0 | 0.0 | 0.0 | 0.00 | 0.00 | 0.00 | 57 | 1008.1 |
| 20260504040003 | 69 | 124 | 0.0 | 0.0 | 0.00 | 0.00 | 0.00 | 55 | 1008.3 |
| 20260504035447 | 70 | 0 | 0.0 | 0.0 | 0.00 | 0.00 | 0.00 | 53 | 1007.9 |
| 20260504034614 | 71 | 124 | 0.0 | 0.0 | 0.00 | 0.00 | 0.00 | 51 | 1008.2 |
| 20260504034547 | 72 | 0 | 0.0 | 0.0 | 0.00 | 0.00 | 0.00 | 51 | 1007.8 |
| 20260504033647 | 73 | 0 | 0.0 | 0.0 | 0.00 | 0.00 | 0.00 | 50 | 1007.6 |
| 20260504032747 | 75 | 0 | 0.0 | 1.0 | 0.00 | 0.00 | 0.00 | 47 | 1007.6 |
| 20260504031600 | 76 | 126 | 0.0 | 3.0 | 0.00 | 0.00 | 0.00 | 45 | 1007.9 |
| 20260504030948 | 78 | 113 | 1.0 | 3.0 | 0.00 | 0.00 | 0.00 | 43 | 1007.5 |
| 20260504030047 | 79 | 112 | 1.0 | 5.0 | 0.00 | 0.00 | 0.00 | 42 | 1007.4 |
| 20260504030001 | 78 | 110 | 0.0 | 5.0 | 0.00 | 0.00 | 0.00 | 42 | 1007.8 |
| 20260504025147 | 80 | 123 | 1.0 | 6.0 | 0.00 | 0.00 | 0.00 | 40 | 1007.5 |
| 20260504024601 | 80 | 142 | 0.0 | 5.0 | 0.00 | 0.00 | 0.00 | 41 | 1007.7 |
| 20260504024247 | 80 | 118 | 1.0 | 5.0 | 0.00 | 0.00 | 0.00 | 40 | 1007.4 |
| 20260504023347 | 81 | 127 | 0.0 | 4.0 | 0.00 | 0.00 | 0.00 | 41 | 1007.3 |
| 20260504022447 | 82 | 129 | 1.0 | 3.0 | 0.00 | 0.00 | 0.00 | 38 | 1007.2 |
| 20260504021601 | 83 | 120 | 0.0 | 5.0 | 0.00 | 0.00 | 0.00 | 36 | 1007.8 |
| 20260504021547 | 84 | 122 | 1.0 | 4.0 | 0.00 | 0.00 | 0.00 | 36 | 1007.3 |
| 20260504020647 | 85 | 115 | 1.0 | 7.0 | 0.00 | 0.00 | 0.00 | 35 | 1007.4 |
| 20260504020001 | 85 | 87 | 1.0 | 7.0 | 0.00 | 0.00 | 0.00 | 35 | 1007.8 |
| 20260504015748 | 86 | 115 | 0.0 | 5.0 | 0.00 | 0.00 | 0.00 | 36 | 1007.4 |
| 20260504014848 | 87 | 111 | 0.0 | 2.0 | 0.00 | 0.00 | 0.00 | 35 | 1007.5 |
| 20260504014619 | 87 | 116 | 0.0 | 2.0 | 0.00 | 0.00 | 0.00 | 34 | 1007.7 |
| 20260504013947 | 88 | 134 | 1.0 | 3.0 | 0.00 | 0.00 | 0.00 | 35 | 1007.5 |
| 20260504013048 | 88 | 120 | 0.0 | 4.0 | 0.00 | 0.00 | 0.00 | 34 | 1007.5 |
| 20260504012147 | 88 | 142 | 1.0 | 2.0 | 0.00 | 0.00 | 0.00 | 35 | 1007.5 |
| 20260504011606 | 87 | 115 | 0.0 | 4.0 | 0.00 | 0.00 | 0.00 | 36 | 1008.0 |
| 20260504011247 | 87 | 115 | 2.0 | 4.0 | 0.00 | 0.00 | 0.00 | 35 | 1007.6 |
| 20260504010001 | 87 | 103 | 4.0 | 7.0 | 0.00 | 0.00 | 0.00 | 34 | 1008.2 |
| 20260504005447 | 88 | 120 | 1.0 | 4.0 | 0.00 | 0.00 | 0.00 | 36 | 1007.8 |
| 20260504004603 | 88 | 184 | 0.0 | 3.0 | 0.00 | 0.00 | 0.00 | 36 | 1008.2 |
| 20260504004547 | 89 | 129 | 1.0 | 3.0 | 0.00 | 0.00 | 0.00 | 36 | 1007.8 |
| 20260504003648 | 88 | 119 | 1.0 | 3.0 | 0.00 | 0.00 | 0.00 | 37 | 1008.0 |
| 20260504003001 | 88 | 129 | 0.0 | 2.0 | 0.00 | 0.00 | 0.00 | 37 | 1008.4 |
| 20260504002747 | 88 | 145 | 1.0 | 4.0 | 0.00 | 0.00 | 0.00 | 38 | 1008.1 |
| 20260504001847 | 88 | 130 | 2.0 | 5.0 | 0.00 | 0.00 | 0.00 | 38 | 1008.1 |
| 20260504001620 | 87 | 131 | 0.0 | 5.0 | 0.00 | 0.00 | 0.00 | 39 | 1008.5 |
| 20260504000948 | 87 | 117 | 3.0 | 6.0 | 0.00 | 0.00 | 0.00 | 37 | 1008.1 |
| 20260504000048 | 87 | 119 | 2.0 | 7.0 | 0.00 | 0.00 | 0.00 | 34 | 1008.2 |
| 20260503235147 | 88 | 121 | 2.0 | 6.0 | 0.00 | 0.00 | 0.00 | 37 | 1008.2 |
| 20260503234600 | 88 | 113 | 1.0 | 5.0 | 0.00 | 0.00 | 0.00 | 35 | 1008.7 |
| 20260503234248 | 88 | 114 | 2.0 | 6.0 | 0.00 | 0.00 | 0.00 | 36 | 1008.3 |
| 20260503233001 | 87 | 118 | 1.0 | 7.0 | 0.00 | 0.00 | 0.00 | 37 | 1008.9 |
| 20260503232447 | 88 | 133 | 2.0 | 4.0 | 0.00 | 0.00 | 0.00 | 36 | 1008.6 |
| 20260503231600 | 87 | 117 | 1.0 | 6.0 | 0.00 | 0.00 | 0.00 | 37 | 1009.0 |
| 20260503231548 | 87 | 128 | 1.0 | 6.0 | 0.00 | 0.00 | 0.00 | 37 | 1008.6 |
| 20260503230648 | 87 | 130 | 3.0 | 6.0 | 0.00 | 0.00 | 0.00 | 38 | 1008.6 |
| 20260503230001 | 85 | 174 | 2.0 | 9.0 | 0.00 | 0.00 | 0.00 | 39 | 1009.2 |
| 20260503224601 | 85 | 139 | 4.0 | 8.0 | 0.00 | 0.00 | 0.00 | 39 | 1009.3 |
| 20260503223947 | 86 | 121 | 2.0 | 10.0 | 0.00 | 0.00 | 0.00 | 40 | 1008.9 |
| 20260503223047 | 87 | 122 | 2.0 | 10.0 | 0.00 | 0.00 | 0.00 | 40 | 1009.1 |
| 20260503223001 | 86 | 124 | 3.0 | 6.0 | 0.00 | 0.00 | 0.00 | 40 | 1009.4 |
| 20260503222147 | 86 | 121 | 2.0 | 9.0 | 0.00 | 0.00 | 0.00 | 40 | 1009.2 |
| 20260503221600 | 85 | 139 | 3.0 | 9.0 | 0.00 | 0.00 | 0.00 | 39 | 1009.8 |
| 20260503221248 | 86 | 121 | 3.0 | 9.0 | 0.00 | 0.00 | 0.00 | 42 | 1009.4 |
| 20260503220347 | 85 | 114 | 2.0 | 8.0 | 0.00 | 0.00 | 0.00 | 40 | 1009.5 |
| 20260503220001 | 84 | 121 | 2.0 | 8.0 | 0.00 | 0.00 | 0.00 | 40 | 1009.9 |
| 20260503215448 | 85 | 110 | 3.0 | 8.0 | 0.00 | 0.00 | 0.00 | 40 | 1009.4 |
| 20260503214602 | 83 | 108 | 1.0 | 8.0 | 0.00 | 0.00 | 0.00 | 41 | 1010.1 |
| 20260503214548 | 84 | 107 | 4.0 | 8.0 | 0.00 | 0.00 | 0.00 | 42 | 1009.6 |
| 20260503213647 | 83 | 109 | 3.0 | 9.0 | 0.00 | 0.00 | 0.00 | 40 | 1009.7 |
| 20260503213003 | 83 | 118 | 4.0 | 9.0 | 0.00 | 0.00 | 0.00 | 43 | 1010.2 |
| 20260503212748 | 83 | 109 | 3.0 | 8.0 | 0.00 | 0.00 | 0.00 | 41 | 1010.0 |
| 20260503211847 | 83 | 113 | 3.0 | 9.0 | 0.00 | 0.00 | 0.00 | 40 | 1009.9 |
| 20260503211601 | 83 | 116 | 2.0 | 9.0 | 0.00 | 0.00 | 0.00 | 41 | 1010.5 |
| 20260503210947 | 83 | 117 | 4.0 | 10.0 | 0.00 | 0.00 | 0.00 | 43 | 1010.1 |
| 20260503210047 | 83 | 108 | 4.0 | 9.0 | 0.00 | 0.00 | 0.00 | 40 | 1010.3 |
| 20260503210001 | 82 | 180 | 2.0 | 9.0 | 0.00 | 0.00 | 0.00 | 41 | 1010.7 |
| 20260503205148 | 82 | 110 | 3.0 | 11.0 | 0.00 | 0.00 | 0.00 | 42 | 1010.3 |
| 20260503204601 | 82 | 87 | 4.0 | 9.0 | 0.00 | 0.00 | 0.00 | 41 | 1010.9 |
| 20260503203348 | 83 | 128 | 3.0 | 8.0 | 0.00 | 0.00 | 0.00 | 42 | 1010.4 |
| 20260503203002 | 82 | 104 | 1.0 | 7.0 | 0.00 | 0.00 | 0.00 | 43 | 1010.8 |
| 20260503202448 | 82 | 122 | 2.0 | 8.0 | 0.00 | 0.00 | 0.00 | 41 | 1010.6 |
| 20260503201601 | 82 | 151 | 0.0 | 9.0 | 0.00 | 0.00 | 0.00 | 44 | 1011.0 |
| 20260503201548 | 83 | 123 | 2.0 | 9.0 | 0.00 | 0.00 | 0.00 | 44 | 1010.5 |
| 20260503200001 | 83 | 131 | 0.0 | 3.0 | 0.00 | 0.00 | 0.00 | 43 | 1011.1 |
| 20260503195748 | 83 | 134 | 1.0 | 3.0 | 0.00 | 0.00 | 0.00 | 43 | 1010.9 |
| 20260503194848 | 82 | 100 | 2.0 | 4.0 | 0.00 | 0.00 | 0.00 | 44 | 1011.1 |
| 20260503194601 | 81 | 79 | 1.0 | 5.0 | 0.00 | 0.00 | 0.00 | 46 | 1011.6 |
| 20260503193948 | 80 | 120 | 3.0 | 8.0 | 0.00 | 0.00 | 0.00 | 46 | 1011.2 |
| 20260503193048 | 80 | 124 | 2.0 | 9.0 | 0.00 | 0.00 | 0.00 | 46 | 1011.3 |
| 20260503193003 | 80 | 125 | 4.0 | 9.0 | 0.00 | 0.00 | 0.00 | 43 | 1011.8 |
| 20260503192148 | 80 | 120 | 2.0 | 10.0 | 0.00 | 0.00 | 0.00 | 46 | 1011.4 |
| 20260503191609 | 79 | 115 | 1.0 | 10.0 | 0.00 | 0.00 | 0.00 | 48 | 1011.9 |
| 20260503190348 | 79 | 127 | 2.0 | 7.0 | 0.00 | 0.00 | 0.00 | 47 | 1011.6 |
| 20260503190001 | 79 | 142 | 2.0 | 7.0 | 0.00 | 0.00 | 0.00 | 46 | 1012.2 |
| 20260503185448 | 79 | 126 | 1.0 | 6.0 | 0.00 | 0.00 | 0.00 | 47 | 1011.5 |
| 20260503184612 | 78 | 129 | 1.0 | 4.0 | 0.00 | 0.00 | 0.00 | 50 | 1012.0 |
| 20260503184548 | 78 | 139 | 2.0 | 4.0 | 0.00 | 0.00 | 0.00 | 50 | 1011.5 |
| 20260503183648 | 77 | 114 | 3.0 | 13.0 | 0.00 | 0.00 | 0.00 | 51 | 1011.6 |
| 20260503183002 | 76 | 98 | 4.0 | 13.0 | 0.00 | 0.00 | 0.00 | 50 | 1012.1 |
| 20260503182748 | 76 | 120 | 2.0 | 8.0 | 0.00 | 0.00 | 0.00 | 52 | 1011.6 |
| 20260503181848 | 75 | 106 | 3.0 | 8.0 | 0.00 | 0.00 | 0.00 | 53 | 1011.7 |
| 20260503181611 | 75 | 105 | 3.0 | 8.0 | 0.00 | 0.00 | 0.00 | 53 | 1012.3 |
| 20260503180948 | 74 | 97 | 2.0 | 8.0 | 0.00 | 0.00 | 0.00 | 55 | 1011.9 |
| 20260503180048 | 74 | 110 | 1.0 | 7.0 | 0.00 | 0.00 | 0.00 | 55 | 1011.8 |
| 20260503180003 | 73 | 99 | 2.0 | 7.0 | 0.00 | 0.00 | 0.00 | 55 | 1012.4 |
| 20260503175148 | 73 | 107 | 3.0 | 9.0 | 0.00 | 0.00 | 0.00 | 57 | 1011.8 |
| 20260503174603 | 72 | 104 | 0.0 | 10.0 | 0.00 | 0.00 | 0.00 | 59 | 1012.4 |
| 20260503174248 | 72 | 100 | 2.0 | 10.0 | 0.00 | 0.00 | 0.00 | 56 | 1012.1 |
| 20260503173347 | 72 | 96 | 2.0 | 8.0 | 0.00 | 0.00 | 0.00 | 59 | 1012.0 |
| 20260503173001 | 71 | 79 | 1.0 | 5.0 | 0.00 | 0.00 | 0.00 | 60 | 1012.5 |
| 20260503171600 | 70 | 106 | 1.0 | 9.0 | 0.00 | 0.00 | 0.00 | 62 | 1012.6 |
| 20260503171548 | 71 | 101 | 3.0 | 8.0 | 0.00 | 0.00 | 0.00 | 62 | 1012.2 |
| 20260503170648 | 70 | 108 | 2.0 | 8.0 | 0.00 | 0.00 | 0.00 | 60 | 1012.3 |
| 20260503150948 | 58 | 0 | 0.0 | 0.0 | 0.00 | 0.00 | 0.00 | 83 | 1012.5 |
| 20260503131248 | 45 | 0 | 0.0 | 0.0 | 0.00 | 0.00 | 0.00 | 96 | 1012.3 |
| 20260503130348 | 45 | 0 | 0.0 | 0.0 | 0.00 | 0.00 | 0.00 | 95 | 1012.2 |
| 20260503081630 | 51 | 89 | 0.0 | 0.0 | 0.00 | 0.00 | 0.00 | 87 | 1013.3 |
| 20260503080648 | 52 | 0 | 0.0 | 0.0 | 0.00 | 0.00 | 0.00 | 88 | 1013.0 |
| 20260503072149 | 53 | 0 | 0.0 | 0.0 | 0.00 | 0.00 | 0.00 | 84 | 1013.2 |
| 20260503071602 | 53 | 89 | 0.0 | 0.0 | 0.00 | 0.00 | 0.00 | 83 | 1013.6 |
| 20260503071248 | 54 | 0 | 0.0 | 0.0 | 0.00 | 0.00 | 0.00 | 83 | 1013.1 |
| 20260503070348 | 54 | 0 | 0.0 | 0.0 | 0.00 | 0.00 | 0.00 | 83 | 1013.0 |
| 20260503054505 | 57 | 72 | 0.0 | 0.0 | 0.00 | 0.00 | 0.00 | 75 | 1013.3 |
| 20260503054248 | 58 | 0 | 0.0 | 0.0 | 0.00 | 0.00 | 0.00 | 74 | 1012.8 |
| 20260503053348 | 59 | 0 | 0.0 | 0.0 | 0.00 | 0.00 | 0.00 | 72 | 1013.0 |
| 20260503053103 | 59 | 72 | 0.0 | 0.0 | 0.00 | 0.00 | 0.00 | 70 | 1013.5 |
| 20260503052448 | 60 | 0 | 0.0 | 0.0 | 0.00 | 0.00 | 0.00 | 69 | 1013.0 |
| 20260503051549 | 61 | 0 | 0.0 | 0.0 | 0.00 | 0.00 | 0.00 | 68 | 1012.9 |
| 20260503051502 | 60 | 72 | 0.0 | 0.0 | 0.00 | 0.00 | 0.00 | 67 | 1013.4 |
| 20260503050648 | 61 | 0 | 0.0 | 0.0 | 0.00 | 0.00 | 0.00 | 68 | 1012.8 |
| 20260503050104 | 61 | 71 | 0.0 | 0.0 | 0.00 | 0.00 | 0.00 | 67 | 1013.3 |
| 20260503045748 | 62 | 0 | 0.0 | 0.0 | 0.00 | 0.00 | 0.00 | 67 | 1012.8 |
| 20260503044849 | 64 | 0 | 0.0 | 0.0 | 0.00 | 0.00 | 0.00 | 64 | 1012.7 |
| 20260503044503 | 64 | 72 | 0.0 | 0.0 | 0.00 | 0.00 | 0.00 | 62 | 1013.1 |
| 20260503043948 | 65 | 0 | 0.0 | 0.0 | 0.00 | 0.00 | 0.00 | 60 | 1012.7 |
| 20260503043115 | 65 | 72 | 0.0 | 0.0 | 0.00 | 0.00 | 0.00 | 60 | 1013.1 |
| 20260503043049 | 66 | 0 | 0.0 | 1.0 | 0.00 | 0.00 | 0.00 | 60 | 1012.5 |
| 20260503042148 | 66 | 0 | 0.0 | 2.0 | 0.00 | 0.00 | 0.00 | 59 | 1012.3 |
| 20260503041501 | 66 | 80 | 0.0 | 2.0 | 0.00 | 0.00 | 0.00 | 59 | 1012.8 |